User: anonymous   Login
Location: Keeble Observatory
(37.7625°N, 77.4755°W)
Time: 13:43:33
(UTC-04:00)
Language:

Cosmos 1484 Rocket - Orbit

View from above orbital plane
View from above orbital plane
View from above satellite
View from above satellite

Ground track
Ground track

The orbit data is extracted from the following two-line orbital elements,

1 14208U 83075B   17111.92116539 +.00000792 +00000-0 +51320-4 0  9998
2 14208 097.3427 124.7950 0038483 327.5210 032.3652 15.10339784838712
Epoch (UTC): 21 April 2017 22:06:28
Eccentricity: 0.0038483
inclination: 97.3427°
perigee height: 508 km
apogee height: 562 km
right ascension of ascending node: 124.7950°
argument of perigee: 327.5210°
revolutions per day: 15.10339784
mean anomaly at epoch: 32.3652°
orbit number at epoch: 83871

The dashed part of the orbit path shows where the satellite is in the earth's shadow,  

DLR